Voltar ao catálogo

STARLINK-37693

AtivoComunicaçõesVLEO
NORAD 100039·PAYLOAD·🇺🇸 United States

Lançado Jul 14, 2026 de Cape Canaveral Space Force Station

Loading…

Próximas Passagens (próximas 24 horas)

TLE

AtualizadoSource: Space-Track

Época: Sep 14, 2026, 09:20 UTC

1 A0039U 26161M   26257.38912158  .00022862  00000-0  68563-3 0  9998
2 A0039  53.1602  26.1823 0001301 100.6796 259.4353 15.34403171  9679

Acompanhe STARLINK-37693 em tempo real com AllMySat

Download on the App Store